This demonstration page uses our WeatherBlox Daily Observations layout. Learn more.

Left ArrowRight Arrow

40.92501, -98.34201

Hourly Observations for June 10, 2020

Temp ( °F °C ) Dew Point ( °F °C ) Humidity (%) Winds ( mph kmh ) Pressure ( in mb ) Visibility ( mi km ) Precip ( " mm )
12:53 am 00:53 Cloudy with Light Rain 57 13.9 51 10.6 81 81 N 24 39 29.71 1006 9 14 0.00 0.00
1:53 am 01:53 Cloudy with Light Rain 57 13.9 51 10.6 81 81 NNW 24 39 29.74 1007 10 16 0.00 0.00
2:53 am 02:53 Cloudy with Light Rain 57 13.9 51 10.6 81 81 NNW 22 35 29.77 1008 10 16 0.00 0.00
3:53 am 03:53 Cloudy 57 13.9 48 8.9 72 72 NNW 28 44 29.80 1009 10 16 0.00 0.00
4:53 am 04:53 Cloudy 57 13.9 45 7.2 64 64 NW 23 37 29.83 1010 10 16 0.00 0.00
5:53 am 05:53 Mostly Clear 54 12.2 44 6.7 69 69 NW 17 28 29.88 1012 10 16 0.00 0.00
6:53 am 06:53 Sunny 55 12.8 44 6.7 67 67 NW 17 28 29.91 1013 10 16 0.00 0.00
7:53 am 07:53 Sunny 57 13.9 45 7.2 64 64 NW 17 28 29.93 1014 10 16 0.00 0.00
8:53 am 08:53 Sunny 61 16.1 46 7.8 58 58 NW 22 35 29.96 1015 10 16 0.00 0.00
9:53 am 09:53 Sunny 64 17.8 46 7.8 52 52 NW 23 37 29.98 1015 10 16 0.00 0.00
10:53 am 10:53 Sunny 67 19.4 47 8.3 49 49 NNW 21 33 29.98 1015 10 16 0.00 0.00
11:53 am 11:53 Sunny 70 21.1 45 7.2 41 41 NW 24 39 30.01 1016 10 16 0.00 0.00
12:53 pm 12:53 Mostly Sunny 73 22.8 45 7.2 37 37 NNW 21 33 30.02 1017 10 16 0.00 0.00
1:53 pm 13:53 Sunny 74 23.3 42 5.6 32 32 NW 24 39 30.03 1017 10 16 0.00 0.00
2:53 pm 14:53 Mostly Sunny 75 23.9 42 5.6 31 31 NW 22 35 30.04 1017 10 16 0.00 0.00
3:53 pm 15:53 Mostly Sunny 76 24.4 41 5 29 29 NW 22 35 30.04 1017 10 16 0.00 0.00
4:53 pm 16:53 Sunny 76 24.4 40 4.4 27 27 NW 21 33 30.05 1018 10 16 0.00 0.00
5:53 pm 17:53 Partly Cloudy 76 24.4 42 5.6 30 30 N 16 26 30.06 1018 10 16 0.00 0.00
6:53 pm 18:53 Sunny 76 24.4 41 5 29 29 NNW 13 20 30.05 1018 10 16 0.00 0.00
7:53 pm 19:53 Sunny 74 23.3 41 5 31 31 NNW 10 17 30.06 1018 10 16 0.00 0.00
8:53 pm 20:53 Sunny 68 20 48 8.9 49 49 N 5 7 30.07 1018 10 16 0.00 0.00
9:53 pm 21:53 Clear 65 18.3 46 7.8 51 51 S 3 6 30.08 1019 10 16 0.00 0.00
10:53 pm 22:53 Clear 63 17.2 48 8.9 58 58 S 5 7 30.11 1020 10 16 0.00 0.00
11:53 pm 23:53 Clear 62 16.7 48 8.9 60 60 S 7 11 30.11 1020 10 16 0.00 0.00

Powered by AerisWeather